Location: Ch�risy
(50.2331°N, 2.9131°E)
Time: 02:11:35
(UTC+00:00)

Landsat 5 - Pass Details

Date: 17 January 2021
Orbit: 528 x 654 km, 98.2° (Epoch: 28 February)

Event Time Altitude Azimuth Distance (km) Brightness Sun altitude
Rises 17:03:20 0° 15° (NNE) 2,799 6.6 -7.3°
Reaches altitude 10° 17:05:32 10° 16° (NNE) 1,876 5.7 -7.6°
Maximum altitude 17:09:35 80° 104° (ESE) 568 3.3 -8.2°
Drops below altitude 10° 17:13:28 10° 192° (SSW) 1,800 6.4 -8.8°
Sets 17:15:32 0° 193° (SSW) 2,675 7.4 -9.1°
